Weather History for Salamanca, Spain

Change the Weather History Date:

Monday, August 19, 2013

  Actual Average Record
Temperature  
Mean Temperature 74 °F -  
Max Temperature 93 °F - - ()
Min Temperature 55 °F - - ()
Cooling Degree Days 9    
Growing Degree Days 24 (Base 50)    
Moisture  
Dew Point 55 °F    
Average Humidity 57    
Maximum Humidity 94    
Minimum Humidity 24    
Precipitation  
Precipitation 0.00 in 0.03 in - ()
Sea Level Pressure  
Sea Level Pressure 30.16 in    
Wind  
Wind Speed 2 mph ()    
Max Wind Speed 14 mph    
Max Gust Speed -    
Visibility 10.0 miles    
Events      
T = Trace of Precipitation, MM = Missing Value Source: Averaged Metar Reports

Daily Weather History Graph

Daily Weather History Graph

Search for Another Location

Airport:

Trip Planner

Search our weather history database for the weather conditions in past years. The results will help you decide how hot, cold, wet, or windy it might be!

Date:

Astronomy

Aug. 19, 2013 Rise Set
Actual Time 7:35 AM CEST 9:14 PM CEST
Civil Twilight 7:06 AM CEST 9:43 PM CEST
Nautical Twilight 6:31 AM CEST 10:18 PM CEST
Astronomical Twilight 5:53 AM CEST 10:56 PM CEST
Moon 7:55 PM CEST (8/19) 5:38 AM CEST (8/19)
Length of Visible Light 14h 36m
Length of Day
13h 38m
Waxing Gibbous, 96% of the Moon is Illuminated
Aug 19
Waxing Gibbous
Aug 21
Full
Aug 28
Last Quarter
Sep 5
New
Sep 12
First Quarter

Hourly Weather History & Observations

Time (CEST) Temp. Heat Index Dew Point Humidity Pressure Visibility Wind Dir Wind Speed Gust Speed Precip Events Conditions
12:00 AM 68.0 °F - 57.2 °F 68% 30.12 in - Calm Calm - N/A   Clear
12:30 AM 68.0 °F - 55.4 °F 64% 30.12 in - Variable 2.3 mph - N/A   Clear
1:00 AM 68.0 °F - 53.6 °F 60% 30.12 in - SSW 3.5 mph - N/A   Clear
1:30 AM 66.2 °F - 55.4 °F 68% 30.12 in - Calm Calm - N/A   Clear
2:00 AM 64 °F - 56 °F 68%  in 9 mi SSW 1.2 mph - -  
2:00 AM 64.4 °F - 55.4 °F 73% 30.12 in - Variable 1.2 mph - N/A   Clear
2:30 AM 62.6 °F - 55.4 °F 77% 30.12 in - Calm Calm - N/A   Clear
3:00 AM 60.8 °F - 57.2 °F 88% 30.15 in - Calm Calm - N/A   Clear
3:30 AM 60.8 °F - 57.2 °F 88% 30.15 in - Calm Calm - N/A   Clear
4:00 AM 59.0 °F - 55.4 °F 88% 30.15 in - Calm Calm - N/A   Clear
4:30 AM 59.0 °F - 55.4 °F 88% 30.15 in - Calm Calm - N/A   Clear
5:00 AM 59.0 °F - 53.6 °F 82% 30.15 in - Calm Calm - N/A   Clear
5:30 AM 57.2 °F - 55.4 °F 94% 30.15 in - Calm Calm - N/A   Clear
6:00 AM 57.2 °F - 55.4 °F 94% 30.15 in - Calm Calm - N/A   Clear
6:30 AM 57.2 °F - 53.6 °F 88% 30.15 in - Calm Calm - N/A   Clear
7:00 AM 55.4 °F - 53.6 °F 94% 30.15 in - Calm Calm - N/A   Clear
7:30 AM 55.4 °F - 53.6 °F 94% 30.15 in - Calm Calm - N/A   Clear
8:00 AM 56 °F - 54 °F 93%  in 9 mi Calm Calm - -  
8:00 AM 55.4 °F - 53.6 °F 94% 30.15 in - Calm Calm - N/A   Clear
8:30 AM 57.2 °F - 55.4 °F 94% 30.18 in - Calm Calm - N/A   Clear
9:00 AM 64.4 °F - 53.6 °F 68% 30.18 in - Calm Calm - N/A   Clear
9:30 AM 68.0 °F - 53.6 °F 60% 30.18 in - Calm Calm - N/A   Clear
10:00 AM 69.8 °F - 53.6 °F 56% 30.21 in - Calm Calm - N/A   Clear
10:30 AM 75.2 °F - 55.4 °F 50% 30.21 in - Calm Calm - N/A   Clear
11:00 AM 75.2 °F - 59.0 °F 57% 30.21 in - Variable 1.2 mph - N/A   Clear
11:30 AM 78.8 °F - 59.0 °F 51% 30.21 in - Variable 2.3 mph - N/A   Clear
12:00 PM 78.8 °F - 57.2 °F 47% 30.18 in - Variable 2.3 mph - N/A   Clear
12:30 PM 80.6 °F 80.8 °F 57.2 °F 45% 30.18 in - Variable 3.5 mph - N/A   Clear
1:00 PM 82.4 °F 81.7 °F 55.4 °F 39% 30.18 in - Variable 2.3 mph - N/A   Clear
1:30 PM 84.2 °F 83.0 °F 55.4 °F 37% 30.18 in - Variable 2.3 mph - N/A   Clear
2:00 PM 87 °F - 56 °F 25%  in 12 mi North 2.3 mph - -  
2:00 PM 84.2 °F 83.5 °F 57.2 °F 40% 30.18 in - Variable 2.3 mph - N/A   Clear
2:30 PM 87.8 °F 86.1 °F 55.4 °F 33% 30.18 in - Variable 1.2 mph - N/A   Clear
3:00 PM 87.8 °F 86.1 °F 55.4 °F 33% 30.18 in - Variable 2.3 mph - N/A   Clear
3:30 PM 89.6 °F 87.7 °F 55.4 °F 31% 30.18 in - Variable 3.5 mph - N/A   Clear
4:00 PM 89.6 °F 87.7 °F 55.4 °F 31% 30.15 in - East 5.8 mph - N/A   Clear
4:30 PM 91.4 °F 89.1 °F 53.6 °F 28% 30.15 in - Variable 4.6 mph - N/A   Clear
5:00 PM 91.4 °F 89.4 °F 55.4 °F 29% 30.15 in - NNW 4.6 mph - N/A   Clear
5:30 PM 91.4 °F 89.9 °F 57.2 °F 31% 30.15 in - NNW 4.6 mph - N/A   Clear
6:00 PM 91.4 °F 89.1 °F 53.6 °F 28% 30.15 in - North 4.6 mph - N/A   Clear
6:30 PM 93.2 °F - 51.8 °F 24% 30.12 in - NNE 6.9 mph - N/A   Clear
7:00 PM 91.4 °F 89.1 °F 53.6 °F 28% 30.12 in - NNE 8.1 mph - N/A   Clear
7:30 PM 91.4 °F 89.1 °F 53.6 °F 28% 30.12 in - NE 8.1 mph - N/A   Clear
8:00 PM 87.8 °F 85.7 °F 53.6 °F 31% 30.12 in - NNE 6.9 mph - N/A   Clear
8:30 PM 86.0 °F 84.2 °F 53.6 °F 33% 30.15 in - NE 4.6 mph - N/A   Clear
9:00 PM 82.4 °F 81.4 °F 53.6 °F 37% 30.15 in - NE 6.9 mph - N/A   Clear
9:30 PM 78.8 °F - 53.6 °F 42% 30.15 in - NE 6.9 mph - N/A   Clear
10:00 PM 78.8 °F - 55.4 °F 44% 30.15 in - ENE 5.8 mph - N/A   Clear
10:30 PM 77.0 °F - 55.4 °F 47% 30.18 in - East 12.7 mph - N/A   Clear
11:00 PM 75.2 °F - 55.4 °F 50% 30.18 in - East 13.8 mph - N/A   Clear
11:30 PM 73.4 °F - 57.2 °F 57% 30.21 in - East 12.7 mph - N/A   Clear